1498795200.32,35441,15.69,73186.3,3.57,-11.41,-14.11,0,*7B
1498795201.58,35442,15.69,73186.5,3.57,-11.59,-14.65,0,*72
1498795202.86,35443,15.69,73184.0,3.57,-11.85,-15.43,0,*77
1498795204.11,35444,15.69,73188.8,3.57,-12.15,-15.99,0,*7D
1498795205.32,35445,15.69,73186.3,3.55,-12.43,-16.59,0,*72
1498795206.58,35446,15.69,73188.3,3.55,-12.79,-17.07,0,*72
1498795207.83,35447,15.69,73190.0,3.55,-13.01,-17.63,0,*7F
1498795209.09,35448,15.69,73186.0,3.57,-13.37,-17.83,0,*79
1498795210.35,35449,15.69,73180.8,3.57,-13.43,-17.97,0,*7E
1498795211.61,35450,15.69,73176.0,3.57,-14.01,-18.21,0,*75
1498795212.87,35451,15.69,73178.0,3.57,-14.29,-17.97,0,*7C
1498795214.15,35452,15.69,73174.0,3.57,-14.83,-17.79,0,*7F
1498795215.41,35453,15.69,73170.0,3.55,-15.01,-17.07,0,*7E
1498795216.63,35454,15.69,73174.0,3.55,-15.57,-16.45,0,*7D
1498795217.86,35455,15.69,73168.3,3.53,-15.95,-15.95,0,*7A
1498795219.12,35456,15.69,73164.8,3.57,-16.13,-15.11,0,*7C
1498795220.35,35457,15.69,73158.5,3.55,-15.43,-13.51,0,*7B
1498795221.58,35458,15.69,73154.8,3.55,-14.23,-12.07,0,*71
1498795222.79,35459,15.69,73154.5,3.55,-13.51,-11.19,0,*7E
1498795224.02,35460,15.69,73152.0,3.55,-13.65,-10.71,0,*7C
1498795225.27,35461,15.69,73154.8,3.57,-13.37,-9.79,0,*48
1498795226.52,35462,15.69,73158.8,3.53,-13.61,-8.85,0,*4E
1498795227.78,35463,15.69,73162.3,3.55,-13.83,-7.77,0,*47
1498795229.01,35464,15.69,73166.8,3.55,-13.83,-7.23,0,*41
1498795230.24,35465,15.69,73166.0,3.55,-14.15,-6.97,0,*46
1498795231.49,35466,15.69,73174.5,3.55,-14.43,-6.93,0,*42
1498795232.72,35467,15.69,73168.8,3.55,-14.51,-6.77,0,*4A
1498795233.95,35468,15.69,73170.0,3.55,-14.83,-6.51,0,*4E
1498795235.2,35469,15.69,73174.3,3.55,-15.43,-6.19,0,*4E
1498795236.42,35470,15.69,73172.8,3.55,-15.53,-5.73,0,*48
1498795237.67,35471,15.69,73176.3,3.57,-15.53,-5.15,0,*4B
1498795238.89,35472,15.69,73176.3,3.59,-15.21,-4.57,0,*44
1498795240.13,35473,15.69,73178.3,3.59,-14.79,-4.01,0,*4A
1498795241.38,35474,15.69,73176.5,3.57,-14.37,-3.43,0,*48
1498795242.6,35475,15.69,73174.5,3.59,-13.83,-2.87,0,*46
1498795243.79,35476,15.69,73176.8,3.59,-13.11,-2.27,0,*44
1498795245.04,35477,15.69,73178.0,3.57,-12.43,-2.07,0,*4F
1498795246.29,35478,15.69,73180.0,3.59,-11.63,-1.83,0,*40
1498795247.52,35479,15.69,73180.8,3.59,-10.71,-1.71,0,*4E
1498795248.73,35480,15.69,73178.8,3.59,-9.83,-1.71,0,*7D
1498795249.92,35481,15.69,73180.5,3.59,-9.05,-1.75,0,*76
1498795251.14,35482,15.69,73184.8,3.61,-8.33,-1.71,0,*7E
1498795252.35,35483,15.69,73186.0,3.61,-7.83,-1.71,0,*7B
1498795253.59,35484,15.69,73186.5,3.61,-7.35,-1.79,0,*79
1498795254.83,35485,15.69,73186.3,3.61,-6.89,-1.87,0,*7F
1498795256.04,35486,15.69,73188.8,3.63,-6.69,-2.07,0,*7B
1498795257.28,35487,15.69,73190.5,3.61,-6.23,-2.23,0,*70
1498795258.53,35488,15.69,73186.8,3.63,-5.93,-2.47,0,*77
1498795259.74,35489,15.69,73188.3,3.63,-5.81,-2.87,0,*79
1498795260.94,35490,15.69,73188.3,3.65,-5.39,-2.95,0,*77
1498795262.18,35491,15.69,73188.0,3.67,-5.15,-3.19,0,*7F
1498795263.39,35492,15.69,73194.3,3.65,-4.85,-3.31,0,*7C
1498795264.58,35493,15.69,73194.0,3.65,-4.57,-3.07,0,*77
1498795265.8,35494,15.69,73188.5,3.67,-4.33,-3.03,0,*74
1498795267.02,35495,15.69,73186.0,3.67,-3.95,-3.19,0,*75
1498795268.28,35496,15.69,73186.3,3.67,-3.71,-3.43,0,*73
1498795269.5,35497,15.69,73184.0,3.67,-3.19,-3.95,0,*77
1498795270.74,35498,15.69,73182.8,3.67,-2.91,-4.69,0,*7D
1498795271.98,35499,15.69,73184.5,3.67,-2.83,-5.65,0,*72
1498795273.19,35500,15.69,73186.0,3.67,-2.83,-6.55,0,*73
1498795274.41,35501,15.69,73180.8,3.67,-3.07,-7.49,0,*73
1498795275.65,35502,15.69,73186.0,3.67,-3.07,-7.61,0,*7A
1498795276.86,35503,15.69,73184.8,3.71,-3.23,-9.05,0,*76
1498795278.06,35504,15.69,73186.0,3.73,-4.09,-10.89,0,*40
1498795279.25,35505,15.69,73180.5,3.73,-4.37,-11.11,0,*4C
1498795280.47,35506,15.69,73186.5,3.73,-4.65,-11.77,0,*48
1498795281.66,35507,15.69,73184.0,3.77,-5.39,-13.19,0,*4F
1498795282.88,35508,15.69,73182.0,3.75,-6.05,-14.15,0,*45
1498795284.12,35509,15.69,73186.8,3.75,-6.73,-15.21,0,*43
1498795285.34,35510,15.69,73184.5,3.75,-7.15,-15.63,0,*4C
1498795286.61,35511,15.69,73186.5,3.75,-7.95,-17.41,0,*47
1498795287.8,35512,15.69,73190.3,3.77,-8.59,-18.07,0,*44
1498795289.05,35513,15.69,73190.0,3.77,-9.11,-18.55,0,*4F
1498795290.24,35514,15.69,73188.8,3.77,-10.05,-19.75,0,*76
1498795291.46,35515,15.69,73194.5,3.77,-10.71,-20.73,0,*78
1498795292.71,35516,15.69,73188.3,3.79,-11.81,-21.77,0,*7E
1498795293.95,35517,15.69,73184.5,3.79,-12.57,-22.41,0,*71
1498795295.18,35518,15.69,73182.5,3.77,-13.11,-22.77,0,*76
1498795296.42,35519,15.69,73184.5,3.77,-13.87,-23.29,0,*72
1498795297.65,35520,15.69,73184.5,3.75,-14.29,-23.43,0,*75
1498795298.89,35521,15.69,73184.5,3.75,-14.93,-23.89,0,*73
1498795300.15,35522,15.69,73192.8,3.75,-15.43,-23.95,0,*71
1498795301.37,35523,15.69,73192.0,3.75,-15.53,-23.79,0,*73
1498795302.59,35524,15.69,73196.8,3.75,-15.75,-23.59,0,*72
1498795303.87,35525,15.69,73192.8,3.75,-16.17,-23.33,0,*78
1498795305.15,35526,15.69,73194.0,3.75,-16.09,-23.23,0,*75
1498795306.37,35527,15.69,73188.0,3.75,-16.37,-22.63,0,*7C
1498795307.62,35528,15.69,73192.3,3.71,-15.71,-21.97,0,*7E
1498795308.85,35529,15.69,73190.3,3.71,-16.55,-22.67,0,*76
1498795310.08,35530,15.69,73192.0,3.71,-16.55,-22.57,0,*7D
1498795311.33,35531,15.69,73194.3,3.73,-17.45,-23.49,0,*70
1498795312.6,35532,15.69,73194.5,3.71,-18.35,-23.95,0,*78
1498795313.86,35533,15.69,73194.0,3.67,-18.73,-24.21,0,*74
1498795315.11,35534,15.69,73188.0,3.67,-18.99,-24.15,0,*70
1498795316.34,35535,15.69,73186.8,3.65,-19.13,-23.99,0,*73
1498795317.58,35536,15.69,73188.8,3.65,-19.27,-24.05,0,*75
1498795318.81,35537,15.69,73184.0,3.65,-19.47,-24.15,0,*73
1498795320.04,35538,15.69,73186.3,3.65,-19.51,-24.21,0,*7C
1498795321.31,35539,15.69,73186.0,3.65,-19.27,-23.69,0,*77
1498795322.52,35540,15.69,73184.3,3.65,-19.13,-23.59,0,*7D
1498795323.76,35541,15.69,73182.5,3.63,-19.65,-24.15,0,*74
1498795325.0,35542,15.69,73184.5,3.61,-19.85,-24.35,0,*79
1498795326.23,35543,15.69,73184.8,3.63,-19.95,-24.25,0,*7A
1498795327.45,35544,15.69,73190.5,3.63,-20.09,-24.25,0,*72
1498795328.69,35545,15.69,73180.3,3.61,-20.25,-24.41,0,*7D
1498795329.92,35546,15.69,73176.8,3.61,-20.39,-24.51,0,*72
1498795331.19,35547,15.69,73176.3,3.61,-20.49,-24.41,0,*75
1498795332.39,35548,15.69,73168.0,3.63,-20.63,-22.53,0,*75
1498795333.62,35549,15.69,73170.5,3.61,-19.37,-20.93,0,*73
1498795334.87,35550,15.69,73176.8,3.63,-17.21,-19.85,0,*7D
1498795336.07,35551,15.69,73176.8,3.59,-17.73,-22.97,0,*79
1498795337.31,35552,15.69,73174.8,3.59,-19.13,-24.41,0,*7F
1498795338.51,35553,15.69,73170.5,3.59,-19.71,-25.23,0,*7F
1498795339.71,35554,15.69,73168.3,3.59,-20.29,-25.61,0,*79
1498795340.96,35555,15.69,73178.0,3.57,-20.73,-25.81,0,*77
1498795342.22,35556,15.69,73184.0,3.57,-20.89,-25.71,0,*7E
1498795343.48,35557,15.69,73184.5,3.57,-21.17,-25.71,0,*79
1498795344.74,35558,15.69,73170.5,3.57,-21.17,-25.71,0,*76
1498795346.0,35559,15.69,73160.0,3.57,-21.33,-25.65,0,*74
1498795347.23,35560,15.69,73166.0,3.59,-21.43,-25.55,0,*74
1498795348.46,35561,15.69,73182.8,3.57,-21.63,-25.65,0,*7A
1498795349.73,35562,15.69,73178.5,3.57,-21.67,-25.61,0,*79
1498795350.98,35563,15.69,73192.0,3.57,-22.07,-25.81,0,*73
1498795352.21,35564,15.69,73188.0,3.55,-21.97,-25.61,0,*72
1498795353.41,35565,15.69,73186.3,3.55,-22.07,-25.49,0,*73
1498795354.65,35566,15.69,73160.5,3.55,-22.21,-25.49,0,*74
1498795355.85,35567,15.69,73174.8,3.55,-22.41,-25.65,0,*7D
1498795357.08,35568,15.69,73178.5,3.55,-22.63,-25.71,0,*77
1498795358.34,35569,15.69,73178.0,3.55,-22.77,-25.81,0,*7C
1498795359.61,35570,15.69,73182.8,3.53,-22.93,-25.71,0,*77
1498795360.82,35571,15.69,73176.0,3.55,-22.93,-25.65,0,*75
1498795362.08,35572,15.69,73170.8,3.55,-23.19,-25.71,0,*70
1498795363.31,35573,15.69,73178.3,3.55,-23.19,-25.61,0,*70
1498795364.55,35574,15.69,73176.8,3.55,-23.23,-25.61,0,*7E
1498795365.78,35575,15.69,73176.3,3.55,-23.23,-25.61,0,*7F
1498795367.03,35576,15.69,73174.5,3.55,-23.23,-25.29,0,*70
1498795368.32,35577,15.69,73178.3,3.57,-23.33,-25.29,0,*72
1498795369.56,35578,15.69,73172.5,3.57,-23.39,-25.03,0,*7F
1498795370.79,35579,15.69,73178.8,3.55,-23.53,-24.97,0,*7C
1498795372.02,35580,15.69,73180.8,3.53,-23.39,-24.51,0,*7A
1498795373.3,35581,15.69,73178.8,3.53,-23.29,-24.21,0,*7D
1498795374.57,35582,15.69,73172.0,3.53,-23.29,-23.95,0,*76
1498795375.82,35583,15.69,73172.5,3.55,-23.19,-23.69,0,*71
1498795377.08,35584,15.69,73180.8,3.53,-23.09,-23.29,0,*75
1498795378.33,35585,15.69,73180.5,3.55,-22.77,-22.73,0,*74
1498795379.56,35586,15.69,73178.0,3.55,-22.57,-22.21,0,*72
1498795380.77,35587,15.69,73178.0,3.55,-22.27,-21.47,0,*77
1498795381.99,35588,15.69,73186.0,3.55,-22.07,-20.53,0,*7E
1498795383.28,35589,15.69,73188.8,3.53,-21.53,-19.65,0,*74
1498795384.53,35590,15.69,73186.5,3.53,-21.03,-18.65,0,*78
1498795385.78,35591,15.69,73178.5,3.55,-20.53,-17.63,0,*72
1498795387.05,35592,15.69,73180.5,3.53,-19.81,-16.51,0,*72
1498795388.29,35593,15.69,73182.3,3.55,-19.17,-15.57,0,*7F
1498795389.54,35594,15.69,73182.0,3.53,-18.45,-14.75,0,*79
1498795390.76,35595,15.69,73176.5,3.55,-17.59,-13.69,0,*76
1498795391.99,35596,15.69,73174.5,3.55,-16.89,-12.79,0,*79
1498795393.28,35597,15.69,73168.8,3.53,-16.09,-11.89,0,*7A
1498795394.48,35598,15.69,73176.3,3.55,-15.29,-11.11,0,*73
1498795395.68,35599,15.69,73178.0,3.55,-14.69,-10.31,0,*74
1498795396.9,35600,15.69,73176.8,3.55,-13.87,-9.75,0,*48
1498795398.1,35601,15.69,73176.0,3.55,-13.23,-9.05,0,*40
1498795399.29,35602,15.69,73178.3,3.55,-12.43,-8.55,0,*40
1498795400.52,35603,15.69,73178.3,3.55,-11.93,-8.17,0,*49
1498795401.74,35604,15.69,73176.3,3.55,-11.41,-7.91,0,*40
1498795402.94,35605,15.69,73178.5,3.55,-10.89,-7.87,0,*43
1498795404.16,35606,15.69,73178.8,3.55,-10.57,-7.77,0,*4C
1498795405.38,35607,15.69,73182.8,3.59,-10.27,-7.99,0,*46
1498795406.6,35608,15.69,73174.5,3.59,-9.97,-8.07,0,*72
1498795407.79,35609,15.69,73174.3,3.59,-9.71,-8.21,0,*7F
1498795409.06,35610,15.69,73176.8,3.57,-9.53,-8.51,0,*7E
1498795410.29,35611,15.69,73176.8,3.59,-9.37,-8.81,0,*7E
1498795411.54,35612,15.69,73178.3,3.57,-9.11,-9.23,0,*7E
1498795412.75,35613,15.69,73176.0,3.59,-8.93,-9.57,0,*79
1498795413.94,35614,15.69,73178.5,3.59,-8.67,-9.89,0,*76
1498795415.14,35615,15.69,73176.8,3.59,-8.33,-10.15,0,*4B
1498795416.37,35616,15.69,73180.3,3.59,-8.11,-10.27,0,*49
1498795417.62,35617,15.69,73180.3,3.57,-7.73,-10.57,0,*4A
1498795418.85,35618,15.69,73184.5,3.59,-7.53,-10.67,0,*4A
1498795420.04,35619,15.69,73180.8,3.59,-7.19,-10.85,0,*49
1498795421.27,35620,15.69,73186.8,3.59,-6.93,-10.93,0,*47
1498795422.46,35621,15.69,73186.0,3.59,-6.77,-10.93,0,*4C
1498795423.69,35622,15.69,73182.3,3.59,-6.59,-10.79,0,*47
1498795424.88,35623,15.69,73184.3,3.59,-6.39,-10.53,0,*48
1498795426.11,35624,15.69,73184.8,3.63,-6.19,-10.19,0,*4A
1498795427.35,35625,15.69,73182.8,3.61,-6.23,-10.05,0,*4D
1498795428.57,35626,15.69,73186.5,3.61,-6.09,-9.93,0,*71
1498795429.81,35627,15.69,73184.3,3.61,-6.09,-9.83,0,*71
1498795431.05,35628,15.69,73184.8,3.61,-6.19,-9.79,0,*7A
1498795432.27,35629,15.69,73184.0,3.63,-6.19,-9.67,0,*76
1498795433.54,35630,15.69,73186.0,3.61,-6.19,-9.53,0,*7B
1498795434.78,35631,15.69,73184.0,3.61,-6.09,-9.41,0,*78
1498795436.0,35632,15.69,73186.8,3.63,-6.09,-9.11,0,*7C
1498795437.19,35633,15.69,73188.0,3.63,-6.09,-8.85,0,*71
1498795438.38,35634,15.69,73182.5,3.63,-6.09,-8.63,0,*7E
1498795439.59,35635,15.69,73184.3,3.63,-6.23,-8.45,0,*73
1498795440.78,35636,15.69,73188.0,3.63,-6.35,-8.45,0,*77
1498795441.98,35637,15.69,73184.8,3.63,-6.59,-8.45,0,*7C
1498795443.16,35638,15.69,73184.0,3.63,-6.73,-8.59,0,*76
1498795444.35,35639,15.69,73186.8,3.63,-7.15,-8.89,0,*7B
1498795445.53,35640,15.69,73192.5,3.63,-7.49,-9.27,0,*79
1498795446.78,35641,15.69,73194.8,3.67,-7.77,-9.75,0,*76
1498795447.98,35642,15.69,73194.0,3.63,-8.21,-10.27,0,*42
1498795449.17,35643,15.69,73194.3,3.63,-8.75,-10.89,0,*46
1498795450.42,35644,15.69,73196.5,3.63,-9.15,-11.37,0,*42
1498795451.64,35645,15.69,73194.8,3.63,-9.71,-11.85,0,*48
1498795452.87,35646,15.69,73192.3,3.63,-10.27,-12.35,0,*78
1498795454.11,35647,15.69,73194.8,3.65,-10.97,-12.79,0,*7C
1498795455.34,35648,15.69,73196.0,3.65,-11.55,-13.11,0,*73
1498795456.56,35649,15.69,73196.8,3.63,-12.35,-13.43,0,*76
1498795457.76,35650,15.69,73202.0,3.63,-13.07,-13.55,0,*79
1498795458.98,35651,15.69,73202.0,3.63,-13.79,-13.55,0,*71
1498795460.21,35652,15.69,73202.5,3.63,-14.47,-13.47,0,*7B
1498795461.42,35653,15.69,73202.3,3.63,-15.07,-13.29,0,*77
1498795462.63,35654,15.69,73202.3,3.65,-15.53,-12.89,0,*7C
1498795463.84,35655,15.69,73204.8,3.63,-15.75,-12.43,0,*79
1498795465.09,35656,15.69,73198.3,3.63,-16.09,-11.89,0,*77
1498795466.31,35657,15.69,73196.8,3.63,-16.31,-11.45,0,*7D
1498795467.56,35658,15.69,73190.8,3.63,-16.23,-10.75,0,*73
1498795468.77,35659,15.69,73190.0,3.63,-16.03,-10.19,0,*7A
1498795469.99,35660,15.69,73184.8,3.63,-15.89,-9.71,0,*47
1498795471.21,35661,15.69,73174.5,3.63,-15.67,-9.15,0,*44
1498795472.4,35662,15.69,73176.5,3.63,-15.49,-8.97,0,*40
1498795473.59,35663,15.69,73172.3,3.63,-15.15,-8.75,0,*44
1498795474.8,35664,15.69,73178.0,3.61,-14.89,-8.75,0,*45
1498795475.98,35665,15.69,73172.5,3.63,-14.69,-8.97,0,*44
1498795477.2,35666,15.69,73172.3,3.61,-14.61,-9.23,0,*43
1498795478.44,35667,15.69,73174.0,3.63,-14.79,-9.57,0,*4A
1498795479.68,35668,15.69,73176.0,3.63,-14.79,-9.83,0,*4C
1498795480.88,35669,15.69,73172.3,3.63,-15.15,-10.19,0,*7D
1498795482.1,35670,15.69,73168.3,3.63,-15.21,-10.89,0,*7B
1498795483.33,35671,15.69,73162.3,3.65,-15.53,-11.67,0,*78
1498795484.57,35672,15.69,73160.0,3.65,-15.63,-12.53,0,*7C
1498795485.81,35673,15.69,73160.5,3.61,-15.89,-13.43,0,*7D
1498795487.03,35674,15.69,73162.3,3.63,-16.31,-14.19,0,*70
1498795488.23,35675,15.69,73160.0,3.63,-16.55,-15.07,0,*7D
1498795489.46,35676,15.69,73162.8,3.63,-16.93,-15.81,0,*7A
1498795490.69,35677,15.69,73164.0,3.63,-17.41,-16.79,0,*71
1498795491.89,35678,15.69,73164.0,3.63,-17.87,-17.49,0,*76
1498795493.11,35679,15.69,73162.0,3.63,-18.31,-18.17,0,*71
1498795494.33,35680,15.69,73160.8,3.63,-18.65,-18.59,0,*7C
1498795495.55,35681,15.69,73158.8,3.63,-19.03,-18.93,0,*7A
1498795496.78,35682,15.69,73156.8,3.63,-19.17,-18.93,0,*7C
1498795497.97,35683,15.69,73156.3,3.63,-19.03,-18.79,0,*7C
1498795499.19,35684,15.69,73156.3,3.63,-18.59,-18.41,0,*7E
1498795500.4,35685,15.69,73152.8,3.63,-18.17,-17.87,0,*70
1498795501.62,35686,15.69,73158.8,3.63,-17.69,-17.25,0,*7D
1498795502.81,35687,15.69,73158.0,3.63,-16.97,-16.45,0,*7B
1498795504.01,35688,15.69,73162.5,3.63,-16.45,-15.67,0,*78
1498795505.23,35689,15.69,73162.8,3.63,-15.63,-14.79,0,*70
1498795506.47,35690,15.69,73166.8,3.63,-14.79,-13.79,0,*75
1498795507.69,35691,15.69,73164.5,3.63,-13.69,-13.01,0,*7D
1498795508.89,35692,15.69,73168.0,3.63,-12.89,-12.29,0,*7A
1498795510.14,35693,15.69,73168.3,3.63,-11.97,-11.73,0,*7B
1498795511.37,35694,15.69,73176.3,3.65,-11.07,-11.15,0,*73
1498795512.58,35695,15.69,73174.8,3.65,-10.23,-10.89,0,*71
1498795513.83,35696,15.69,73176.0,3.65,-9.53,-10.63,0,*49
1498795515.06,35697,15.69,73180.3,3.65,-8.81,-10.15,0,*47
1498795516.28,35698,15.69,73182.8,3.65,-8.11,-9.89,0,*7C
1498795517.52,35699,15.69,73180.5,3.61,-7.61,-9.79,0,*7E
1498795518.71,35700,15.69,73188.3,3.63,-7.23,-9.71,0,*73
1498795519.92,35701,15.69,73186.0,3.63,-6.77,-9.57,0,*76
1498795521.14,35702,15.69,73188.3,3.63,-6.55,-9.45,0,*76
1498795522.35,35703,15.69,73194.5,3.63,-6.47,-9.45,0,*74
1498795523.57,35704,15.69,73198.0,3.63,-6.35,-9.53,0,*71
1498795524.79,35705,15.69,73200.0,3.63,-6.23,-9.71,0,*77
1498795526.0,35706,15.69,73202.8,3.63,-6.19,-9.79,0,*75
1498795527.22,35707,15.69,73198.5,3.63,-6.23,-9.71,0,*75
1498795528.41,35708,15.69,73200.8,3.63,-6.35,-9.93,0,*71
1498795529.62,35709,15.69,73204.5,3.65,-6.51,-9.93,0,*74
1498795530.81,35710,15.69,73206.8,3.65,-6.55,-9.79,0,*7C
1498795532.01,35711,15.69,73206.5,3.65,-6.81,-9.89,0,*7B
1498795533.21,35712,15.69,73208.3,3.65,-7.11,-9.93,0,*7B
1498795534.43,35713,15.69,73210.0,3.65,-7.43,-9.89,0,*76
1498795535.62,35714,15.69,73208.5,3.65,-7.49,-9.93,0,*70
1498795536.84,35715,15.69,73214.3,3.65,-7.65,-9.93,0,*7F
1498795538.09,35716,15.69,73214.3,3.67,-7.99,-10.05,0,*4A
1498795539.29,35717,15.69,73214.3,3.65,-8.17,-10.05,0,*40
1498795540.5,35718,15.69,73210.8,3.65,-8.37,-10.01,0,*49
1498795541.7,35719,15.69,73214.3,3.65,-8.41,-9.75,0,*72
1498795542.94,35720,15.69,73210.8,3.67,-8.71,-9.49,0,*76
1498795544.14,35721,15.69,73212.0,3.65,-8.93,-9.19,0,*7C
1498795545.34,35722,15.69,73208.8,3.65,-9.05,-8.85,0,*75
1498795546.56,35723,15.69,73206.3,3.65,-9.11,-8.55,0,*7C
1498795547.75,35724,15.69,73204.5,3.65,-9.27,-8.29,0,*75
1498795549.0,35725,15.69,73206.0,3.65,-9.41,-8.03,0,*7C
1498795550.24,35726,15.69,73202.3,3.65,-9.49,-7.73,0,*7F
1498795551.48,35727,15.69,73200.8,3.65,-9.49,-7.57,0,*78
1498795552.75,35728,15.69,73200.8,3.67,-9.53,-7.35,0,*7A
1498795553.99,35729,15.69,73196.5,3.65,-9.61,-7.31,0,*7C
1498795555.2,35730,15.75,73202.0,3.65,-9.67,-7.35,0,*76
1498795556.43,35731,15.69,73200.0,3.65,-9.79,-7.43,0,*79
1498795557.66,35732,15.69,73198.5,3.67,-9.89,-7.61,0,*77
1498795558.9,35733,15.69,73192.8,3.67,-10.05,-7.65,0,*4E
1498795560.11,35734,15.69,73196.0,3.65,-10.19,-7.87,0,*4A
1498795561.35,35735,15.69,73192.3,3.63,-10.41,-8.03,0,*43
1498795562.6,35736,15.69,73192.0,3.67,-10.57,-8.03,0,*43
1498795563.79,35737,15.69,73190.5,3.65,-10.57,-8.25,0,*44
1498795565.02,35738,15.69,73190.8,3.65,-10.63,-8.17,0,*4D
1498795566.29,35739,15.69,73188.8,3.67,-10.63,-8.11,0,*48
1498795567.56,35740,15.69,73194.3,3.67,-10.63,-8.03,0,*45
1498795568.84,35741,15.69,73190.3,3.67,-10.63,-7.91,0,*40
1498795570.08,35742,15.69,73188.5,3.67,-10.45,-7.65,0,*4C
1498795571.31,35743,15.69,73188.0,3.65,-10.23,-7.65,0,*4F
1498795572.55,35744,15.69,73190.3,3.67,-10.05,-7.43,0,*4A
1498795573.78,35745,15.69,73186.3,3.67,-9.89,-7.05,0,*75
1498795574.98,35746,15.69,73194.0,3.65,-9.75,-6.81,0,*7A
1498795576.19,35747,15.69,73192.8,3.67,-9.67,-6.51,0,*77
1498795577.41,35748,15.69,73188.0,3.65,-9.61,-6.05,0,*7D
1498795578.64,35749,15.69,73192.0,3.67,-9.53,-5.47,0,*7A
1498795579.91,35750,15.69,73192.5,3.67,-9.49,-5.11,0,*7A
1498795581.19,35751,15.69,73190.3,3.67,-9.37,-4.81,0,*7A
1498795582.44,35752,15.69,73192.3,3.67,-9.11,-4.57,0,*76
1498795583.66,35753,15.69,73190.5,3.67,-8.85,-4.33,0,*79
1498795584.9,35754,15.69,73188.8,3.71,-8.51,-3.87,0,*78
1498795586.14,35755,15.69,73188.5,3.67,-8.25,-3.59,0,*7E
1498795587.35,35756,15.69,73188.5,3.67,-7.87,-3.15,0,*72
1498795588.61,35757,15.69,73186.3,3.65,-7.57,-2.71,0,*7F
1498795589.85,35758,15.69,73188.8,3.67,-7.31,-2.31,0,*76
1498795591.1,35759,15.69,73190.0,3.67,-6.97,-2.15,0,*7C
1498795592.31,35760,15.69,73186.3,3.71,-6.59,-1.75,0,*76
1498795593.58,35761,15.69,73184.0,3.71,-6.23,-1.47,0,*7B
1498795594.84,35762,15.69,73184.5,3.71,-5.89,-1.35,0,*7E
1498795596.06,35763,15.69,73188.0,3.73,-5.51,-1.13,0,*7C
1498795597.31,35764,15.69,73188.8,3.71,-5.19,-0.93,0,*4C
1498795598.53,35765,15.69,73190.5,3.71,-4.99,-0.85,0,*43
1498795599.72,35766,15.69,73184.8,3.73,-4.65,-0.69,0,*43
1498795600.92,35767,15.69,73188.8,3.71,-4.41,-0.65,0,*4A
1498795602.13,35768,15.69,73190.3,3.71,-4.29,-0.53,0,*4E
1498795603.32,35769,15.69,73192.0,3.73,-4.05,-0.53,0,*43
1498795604.52,35770,15.69,73188.3,3.73,-3.75,-0.49,0,*40
1498795605.74,35771,15.69,73192.0,3.73,-3.59,-0.37,0,*46
1498795606.95,35772,15.69,73198.8,3.73,-3.39,-0.27,0,*42
1498795608.14,35773,15.69,73192.3,3.73,-3.19,-0.15,0,*40
1498795609.34,35774,15.69,73188.0,3.73,-2.95,-0.11,0,*46
1498795610.54,35775,15.69,73192.0,3.73,-2.71,0.01,0,*51
1498795611.74,35776,15.69,73188.5,3.73,-2.71,0.01,0,*52
1498795612.95,35777,15.69,73192.3,3.73,-2.59,-0.07,0,*72
1498795614.17,35778,15.69,73192.5,3.73,-2.47,-0.11,0,*45
1498795615.4,35779,15.69,73190.8,3.73,-2.47,-0.23,0,*45
1498795616.61,35780,15.69,73198.0,3.73,-2.35,-0.27,0,*42
1498795617.84,35781,15.69,73198.5,3.75,-2.35,-0.27,0,*45
1498795619.05,35782,15.69,73196.8,3.75,-2.43,-0.37,0,*46
1498795620.23,35783,15.69,73196.0,3.73,-2.35,-0.49,0,*49
1498795621.44,35784,15.69,73196.3,3.75,-2.31,-0.61,0,*46
1498795622.65,35785,15.69,73200.5,3.75,-2.31,-0.69,0,*4F
1498795623.85,35786,15.69,73200.0,3.75,-2.35,-0.73,0,*43
1498795625.08,35787,15.69,73202.3,3.75,-2.31,-0.97,0,*4C
1498795626.3,35788,15.69,73204.3,3.77,-2.31,-1.39,0,*74
1498795627.53,35789,15.69,73202.3,3.77,-2.59,-1.91,0,*79
1498795628.71,35790,15.69,73202.5,3.77,-2.83,-2.27,0,*78
1498795629.92,35791,15.69,73204.0,3.77,-2.83,-2.59,0,*70
1498795631.13,35792,15.69,73200.3,3.79,-3.07,-3.03,0,*7E
1498795632.34,35793,15.69,73206.8,3.77,-3.27,-3.67,0,*71
1498795633.58,35794,15.69,73204.3,3.75,-3.47,-4.37,0,*70
1498795634.8,35795,15.69,73206.0,3.77,-3.95,-5.11,0,*79
1498795636.01,35796,15.69,73206.8,3.77,-4.45,-5.73,0,*74
1498795637.24,35797,15.69,73204.5,3.75,-4.93,-6.31,0,*79
1498795638.45,35798,15.69,73210.3,3.77,-5.35,-6.93,0,*71
1498795639.69,35799,15.69,73210.8,3.77,-5.61,-7.61,0,*7D
1498795640.89,35800,15.69,73210.8,3.77,-5.81,-8.55,0,*74
1498795642.15,35801,15.69,73208.8,3.75,-6.23,-9.83,0,*76
1498795643.38,35802,15.69,73210.5,3.75,-6.89,-10.97,0,*48
1498795644.61,35803,15.69,73210.8,3.75,-7.53,-12.15,0,*47
1498795645.82,35804,15.69,73208.0,3.75,-8.29,-13.47,0,*44
1498795647.1,35805,15.69,73210.5,3.75,-9.11,-14.47,0,*48
1498795648.33,35806,15.69,73208.5,3.75,-9.71,-15.49,0,*42
1498795649.6,35807,15.69,73212.3,3.75,-10.63,-16.65,0,*75
1498795650.85,35808,15.69,73216.3,3.77,-11.33,-17.55,0,*7E
1498795652.1,35809,15.69,73204.5,3.75,-12.03,-18.31,0,*70
1498795653.34,35810,15.69,73216.5,3.73,-12.71,-18.89,0,*78
1498795654.55,35811,15.69,73220.3,3.73,-13.55,-19.51,0,*7A
1498795655.83,35812,15.69,73216.8,3.71,-14.47,-20.19,0,*79
1498795657.1,35813,15.69,73218.3,3.71,-15.21,-20.79,0,*7F
1498795658.34,35814,15.69,73212.0,3.71,-15.99,-21.27,0,*71
1498795659.59,35815,15.69,73212.5,3.71,-16.75,-21.57,0,*76
1498795660.83,35816,15.69,73210.3,3.73,-17.35,-21.87,0,*7F
1498795662.07,35817,15.69,73210.8,3.71,-18.01,-22.07,0,*7F
1498795663.35,35818,15.69,73208.8,3.71,-18.55,-22.31,0,*74
1498795664.58,35819,15.69,73210.3,3.71,-19.13,-22.37,0,*70
1498795665.86,35820,15.69,73212.8,3.71,-19.57,-22.21,0,*7D
1498795667.11,35821,15.69,73208.3,3.71,-19.91,-22.17,0,*73
1498795668.36,35822,15.69,73206.0,3.71,-20.15,-22.07,0,*77
1498795669.61,35823,15.69,73206.0,3.67,-20.43,-21.97,0,*78
1498795670.87,35824,15.69,73198.3,3.67,-20.83,-21.93,0,*77
1498795672.1,35825,15.69,73198.3,3.65,-20.99,-21.77,0,*75
1498795673.35,35826,15.69,73194.0,3.67,-21.03,-21.47,0,*75
1498795674.61,35827,15.69,73194.5,3.67,-21.17,-21.03,0,*71
1498795675.84,35828,15.69,73188.3,3.67,-21.47,-20.73,0,*7D
1498795677.07,35829,15.69,73190.5,3.67,-21.63,-20.39,0,*74
1498795678.3,35830,15.75,73188.0,3.65,-21.77,-19.81,0,*72
1498795679.58,35831,15.69,73186.8,3.67,-21.67,-19.27,0,*7C
1498795680.79,35832,15.69,73190.5,3.65,-21.77,-18.69,0,*77
1498795682.0,35833,15.69,73182.0,3.65,-21.93,-18.07,0,*74
1498795683.23,35834,15.69,73184.3,3.65,-21.93,-17.63,0,*7E
1498795684.48,35835,15.69,73182.0,3.65,-21.97,-17.17,0,*78
1498795685.76,35836,15.69,73182.0,3.67,-21.97,-16.31,0,*7C
1498795686.97,35837,15.69,73180.3,3.65,-21.63,-15.53,0,*73
1498795688.19,35838,15.69,73180.5,3.65,-21.17,-14.75,0,*7A
1498795689.43,35839,15.69,73184.3,3.65,-20.99,-14.23,0,*7F
1498795690.66,35840,15.69,73180.3,3.67,-20.89,-13.51,0,*70
1498795691.88,35841,15.69,73182.0,3.65,-20.35,-12.43,0,*76
1498795693.13,35842,15.69,73178.5,3.65,-19.65,-11.33,0,*7E
1498795694.34,35843,15.69,73182.0,3.65,-19.17,-10.45,0,*7A
1498795695.54,35844,15.69,73178.5,3.63,-18.65,-9.79,0,*48
1498795696.76,35845,15.69,73176.0,3.63,-18.01,-8.85,0,*49
1498795698.01,35846,15.69,73178.8,3.63,-17.41,-7.91,0,*4B
1498795699.25,35847,15.69,73180.5,3.63,-16.51,-7.01,0,*43
1498795700.45,35848,15.69,73178.0,3.63,-16.03,-6.43,0,*4C
1498795701.67,35849,15.69,73178.5,3.63,-15.43,-5.55,0,*4E
1498795702.93,35850,15.69,73172.3,3.65,-14.51,-4.81,0,*4A
1498795704.16,35851,15.69,73178.3,3.63,-14.01,-4.21,0,*42
1498795705.4,35852,15.69,73174.3,3.63,-13.33,-3.59,0,*4F
1498795706.62,35853,15.69,73174.8,3.63,-12.71,-3.11,0,*45